Time[GMT],current_u[cm/s](10m),current_v[cm/s](10m),current_u[cm/s](14m),current_v[cm/s](14m),current_u[cm/s](18m),current_v[cm/s](18m),current_u[cm/s](22m),current_v[cm/s](22m),current_u[cm/s](26m),current_v[cm/s](26m),current_u[cm/s](30m),current_v[cm/s](30m),current_u[cm/s](34m),current_v[cm/s](34m),current_u[cm/s](38m),current_v[cm/s](38m),current_u[cm/s](42m),current_v[cm/s](42m),current_u[cm/s](46m),current_v[cm/s](46m),current_u[cm/s](50m),current_v[cm/s](50m),current_u[cm/s](54m),current_v[cm/s](54m)
2006-04-10 14:00,-3.02,-16.41,-1.64,-18.61,-3.16,-13.43,-3.72,-11.51,-3.50,-9.77,-5.62,-13.21,-6.22,-10.78,-3.12,-5.71,-0.42,-3.56,-0.01,-3.54,0.23,-4.00,0.65,-2.21
2006-04-10 15:00,-3.52,-14.68,1.19,-17.26,0.83,-11.74,-0.90,-10.47,-1.63,-9.75,-2.39,-9.66,-2.43,-7.38,1.67,-4.30,5.54,-4.32,5.15,-3.70,2.20,-2.17,0.19,0.06
2006-04-10 16:00,-0.04,-15.54,3.40,-17.34,2.30,-12.14,2.31,-10.05,1.84,-10.92,1.45,-9.58,1.21,-8.40,4.54,-5.55,6.52,-6.64,4.00,-5.50,2.95,-3.31,1.71,-2.63
2006-04-10 17:00,-0.81,-13.26,2.41,-14.30,3.89,-9.39,4.07,-7.15,6.41,-8.75,5.58,-7.33,4.97,-6.67,6.26,-6.09,8.62,-4.88,6.48,-5.40,6.47,-1.44,5.93,0.38
2006-04-10 18:00,-2.44,-11.97,-0.98,-11.96,2.73,-8.99,5.22,-10.35,6.04,-11.05,4.85,-8.38,4.55,-7.00,6.57,-7.14,7.02,-6.18,3.62,-5.61,5.38,-3.43,4.84,-0.88
2006-04-10 19:00,-2.07,-14.67,-1.66,-12.15,0.42,-9.98,4.09,-12.56,7.38,-12.43,7.06,-10.96,5.89,-9.11,6.96,-7.76,6.25,-7.13,1.66,-5.66,1.17,-4.35,2.85,-2.61
2006-04-10 20:00,0.29,-9.19,-1.37,-5.30,2.41,-5.75,5.36,-9.79,7.49,-9.58,5.98,-7.63,6.42,-6.98,8.02,-6.41,7.04,-5.55,3.85,-4.61,2.27,-2.77,4.55,-0.96
2006-04-10 21:00,2.08,-7.10,-0.77,-2.00,0.22,-2.54,2.63,-9.34,3.97,-8.95,4.15,-6.71,4.98,-4.90,3.98,-4.36,2.19,-3.94,2.36,-4.52,1.99,-1.81,2.72,2.46
2006-04-10 22:00,2.54,-8.32,0.03,-4.37,-0.26,-6.95,1.46,-11.76,2.47,-10.95,3.58,-10.10,3.83,-9.19,2.07,-8.15,1.37,-8.25,0.67,-6.58,2.92,-3.21,4.42,0.56
2006-04-10 23:00,3.30,-5.60,0.13,-5.80,-0.49,-7.96,0.17,-8.08,1.39,-7.62,0.55,-6.51,-0.78,-5.54,-0.74,-6.36,-1.82,-4.81,-0.54,-0.99,1.23,3.28,-1.52,5.91
2006-04-11 00:00,-0.56,-14.12,-4.02,-11.91,-5.89,-11.93,-7.23,-14.83,-7.26,-11.50,-9.42,-10.88,-8.99,-12.01,-10.14,-11.30,-10.91,-6.52,-9.56,-4.36,-6.12,-2.94,-4.39,-2.43
2006-04-11 01:00,5.94,-10.35,0.75,-9.68,-2.36,-9.03,-3.76,-11.73,-1.68,-11.01,-0.48,-10.46,-1.84,-8.67,-1.41,-8.02,-1.33,-6.85,-1.12,-3.66,-0.51,-1.82,-0.88,-1.61
2006-04-11 02:00,5.59,-8.78,-2.95,-9.51,-5.26,-8.73,-5.83,-6.08,-5.43,-6.38,-3.45,-6.74,-2.90,-6.47,-1.80,-4.17,-1.82,-3.03,-1.14,-1.79,-0.72,-3.23,-1.50,-4.50
2006-04-11 03:00,8.07,-24.73,-0.28,-21.13,-3.68,-16.29,-3.17,-15.51,-3.81,-15.49,-3.70,-16.92,-2.61,-18.16,-2.30,-15.99,-0.73,-13.55,0.21,-11.40,0.42,-12.48,0.91,-14.53
2006-04-11 04:00,2.11,-17.20,-6.75,-13.96,-6.25,-10.68,-4.55,-10.81,-4.79,-12.13,-5.09,-12.53,-3.12,-13.21,-3.09,-10.80,-1.74,-7.59,-1.44,-5.42,-1.55,-6.81,-1.69,-8.10
2006-04-11 05:00,0.42,-24.26,-0.90,-20.79,1.26,-17.14,2.31,-17.87,0.56,-17.96,-0.32,-18.85,-0.07,-18.98,0.43,-16.44,-0.53,-13.49,-2.69,-11.83,-1.91,-11.29,-0.50,-10.77
2006-04-11 06:00,1.57,-15.69,0.62,-10.66,3.78,-9.73,6.11,-7.70,4.63,-8.34,2.86,-7.29,3.68,-8.30,2.84,-8.65,4.80,-7.14,4.84,-5.15,2.85,-4.06,2.43,-3.67
2006-04-11 07:00,0.38,-7.70,3.29,-5.91,3.43,-5.67,7.19,-4.98,4.61,-2.92,3.56,-2.92,2.83,-2.19,3.60,-0.93,5.60,-0.97,5.25,-0.13,2.46,-0.22,1.08,0.94
2006-04-11 08:00,4.47,-15.99,4.47,-16.72,5.85,-14.65,8.49,-11.58,6.16,-9.66,5.17,-9.84,4.72,-8.31,4.25,-8.13,5.51,-7.45,6.41,-6.25,4.99,-5.31,3.70,-4.44
2006-04-11 09:00,-3.09,-8.30,1.65,-9.93,2.54,-10.82,5.68,-12.30,6.95,-8.80,4.85,-6.60,3.28,-5.50,1.27,-5.05,2.79,-4.19,3.43,-3.89,3.85,-2.11,3.19,-0.94
2006-04-11 10:00,-7.70,-6.11,-2.01,-2.05,-0.11,-3.89,1.41,-7.30,2.49,-7.09,0.92,-4.94,-0.19,-3.28,-0.49,-2.23,0.26,-1.59,0.61,-0.66,0.45,2.01,-0.49,3.09
2006-04-11 11:00,-6.32,-4.76,-3.36,-3.48,-4.90,-4.98,-3.62,-5.43,-2.55,-3.04,-4.02,-0.86,-4.19,0.44,-3.85,2.11,-3.25,2.91,-2.04,3.78,-2.26,4.86,-1.88,6.43
2006-04-11 12:00,-8.06,-9.13,-2.27,-7.54,-5.68,-7.29,-7.72,-8.51,-5.68,-8.02,-5.27,-8.00,-3.14,-4.57,-2.76,-1.95,-5.05,-1.27,-4.32,-1.26,-1.98,-1.41,-0.93,-1.10
2006-04-11 13:00,-2.09,-10.30,-0.10,-10.34,-1.09,-6.26,-1.58,-5.99,0.22,-8.58,0.73,-9.27,0.93,-5.67,-0.78,-3.04,-1.49,-1.69,-1.67,-1.43,-2.34,-0.89,0.47,-1.95
2006-04-11 14:00,-0.62,-16.75,1.16,-12.89,-1.48,-10.96,-1.24,-12.86,-0.99,-13.73,0.36,-15.84,-0.10,-12.84,-0.56,-10.90,-2.31,-7.76,-1.57,-6.40,-2.78,-5.81,-2.08,-5.71
2006-04-11 15:00,1.05,-13.55,1.77,-9.27,-0.01,-8.86,-1.21,-9.42,0.72,-11.36,1.11,-12.70,-0.68,-11.56,-0.11,-8.89,-1.42,-5.83,-2.85,-5.21,-3.27,-3.77,-2.37,-3.30
2006-04-11 16:00,2.56,-16.96,3.57,-11.15,3.53,-13.14,-0.33,-13.85,0.03,-14.37,2.43,-14.71,2.88,-12.70,3.17,-10.85,1.32,-9.51,1.07,-6.88,0.20,-6.40,0.92,-5.98
2006-04-11 17:00,4.52,-18.68,6.49,-14.36,2.11,-13.97,-2.77,-14.04,-0.78,-10.86,0.91,-12.03,0.99,-10.86,1.51,-9.45,0.99,-8.36,-0.02,-7.40,-0.79,-5.13,-1.70,-4.87
2006-04-11 18:00,2.12,-22.20,6.22,-15.58,4.86,-15.56,2.29,-15.69,-1.26,-11.72,0.91,-9.53,3.46,-10.76,3.11,-9.20,2.47,-7.72,1.65,-6.71,1.10,-4.47,-0.83,-3.58
2006-04-11 19:00,1.59,-14.33,4.85,-7.33,5.95,-11.08,2.97,-11.22,-0.52,-6.40,1.49,-2.59,2.10,-4.70,3.85,-5.33,4.83,-1.19,1.86,-0.29,1.64,1.52,1.93,3.38
2006-04-11 20:00,-4.56,-24.67,-3.20,-15.42,1.49,-13.63,-0.88,-19.43,-3.74,-14.64,-4.80,-9.95,-3.69,-9.83,-1.25,-8.91,-1.35,-7.48,-2.54,-6.27,-2.60,-5.35,-3.10,-5.80
2006-04-11 21:00,-9.33,-20.13,-7.55,-13.36,-2.10,-8.85,-3.92,-12.61,-7.85,-10.21,-7.50,-5.01,-7.48,-5.42,-6.48,-4.92,-5.05,-3.04,-5.57,-1.63,-5.19,-0.06,-4.20,1.90
2006-04-11 22:00,-6.74,-11.87,-5.38,-4.39,-2.31,-6.72,-3.91,-8.02,-3.40,-3.70,-1.71,0.85,-3.72,1.31,-3.11,1.38,-2.30,2.87,-3.26,5.09,-2.77,6.27,-2.78,7.00
2006-04-11 23:00,-4.62,-7.71,-3.18,-4.79,-2.93,-8.88,-8.21,-9.69,-8.78,-4.55,-5.22,-4.24,-3.10,-2.57,-4.61,-2.39,-3.93,-2.61,-3.61,-0.85,-3.77,1.50,-4.75,3.40
2006-04-12 00:00,-8.38,-8.39,-7.03,-11.22,-9.40,-12.02,-9.75,-6.91,-5.72,-3.96,-2.36,-2.98,-4.26,-1.45,-3.41,-2.25,-3.19,-1.56,-3.21,-0.42,-2.19,1.44,-0.91,3.48
2006-04-12 01:00,-10.07,-3.67,-8.15,-5.61,-13.45,-6.02,-12.84,-0.63,-6.68,2.53,-1.39,0.84,-1.76,0.32,-3.32,-0.76,-2.78,-1.54,-3.62,-1.16,-1.90,-0.97,0.37,1.57
2006-04-12 02:00,-9.56,-10.40,-12.86,-10.53,-17.64,-4.53,-13.54,-0.73,-7.94,-0.65,-7.50,-1.78,-8.46,-2.06,-8.79,-2.36,-7.88,-2.62,-7.06,-2.58,-6.23,-3.28,-4.84,-3.40
2006-04-12 03:00,-2.91,-6.79,1.19,-7.99,-1.17,-12.74,-8.92,-10.11,-6.49,-5.23,-1.60,-5.57,4.01,-6.23,3.03,-8.59,2.21,-8.63,1.35,-7.84,1.27,-9.32,1.17,-11.85
2006-04-12 04:00,-6.92,-15.88,-1.83,-17.62,-3.56,-14.90,-3.27,-6.27,0.77,-9.05,5.04,-12.59,6.95,-14.85,4.16,-13.16,3.21,-13.13,4.25,-15.95,4.86,-18.06,2.49,-14.59
2006-04-12 05:00,-11.51,-17.64,-6.76,-17.50,-1.58,-19.53,-0.77,-15.54,3.48,-16.17,4.68,-19.57,4.87,-20.56,4.95,-21.58,3.53,-19.91,1.94,-21.94,2.74,-22.54,0.30,-16.69
2006-04-12 06:00,-18.78,-3.83,-7.80,-9.68,-1.57,-14.94,-1.75,-15.41,0.28,-10.23,1.63,-13.07,1.15,-14.98,0.51,-15.27,-0.83,-14.62,-1.71,-12.69,-2.32,-10.58,-1.92,-9.11
2006-04-12 07:00,-15.46,-4.83,-7.28,-5.05,1.05,-14.28,1.51,-17.27,2.92,-14.25,6.88,-11.43,7.52,-12.18,3.16,-11.89,2.14,-13.02,1.92,-12.25,2.19,-9.99,2.86,-7.29
2006-04-12 08:00,-11.36,-4.99,-2.83,-13.85,0.83,-21.01,4.54,-23.36,4.26,-17.41,8.97,-13.21,8.78,-11.50,4.58,-11.37,1.47,-10.72,1.78,-10.00,2.37,-9.52,1.86,-7.06
2006-04-12 09:00,-9.79,-5.36,-2.84,-12.39,-0.79,-16.90,1.91,-19.34,2.12,-14.38,3.33,-12.47,3.15,-12.21,0.66,-8.66,-1.77,-7.50,-1.13,-6.48,-2.55,-4.81,-1.87,-2.53
2006-04-12 10:00,-6.11,-3.35,-5.36,-4.48,-6.14,-9.30,-7.69,-13.61,-6.56,-10.36,-4.89,-8.20,-4.17,-4.97,-6.01,-1.55,-7.53,0.82,-6.58,0.78,-8.33,1.42,-8.19,1.98
2006-04-12 11:00,-8.37,-13.07,-10.10,-12.85,-8.33,-12.85,-8.21,-13.97,-7.45,-13.01,-6.04,-10.00,-3.89,-8.43,-6.00,-5.50,-0.87,-7.34,0.53,-5.37,-1.70,1.17,-1.23,3.50
2006-04-12 12:00,-14.38,-7.12,-15.21,-3.93,-13.30,-3.68,-14.49,-2.47,-13.79,0.13,-12.96,0.48,-11.37,-0.30,-10.19,1.71,-7.63,4.02,-5.79,5.91,-3.35,6.11,-0.15,6.94
2006-04-12 13:00,-13.68,-16.29,-12.71,-10.70,-9.79,-7.13,-10.20,-7.15,-10.97,-7.38,-9.90,-9.25,-9.34,-9.40,-8.08,-5.49,-5.22,-4.96,-3.59,-5.53,-1.60,-3.07,1.79,-2.19
2006-04-12 14:00,-11.56,-11.40,-13.26,-5.96,-10.86,1.51,-8.94,2.07,-8.95,-1.47,-7.81,-3.95,-8.26,-1.69,-7.12,2.61,-6.13,3.52,-4.63,4.06,-2.52,2.91,1.90,1.70
2006-04-12 15:00,-16.95,-13.29,-14.33,-8.36,-9.66,-1.89,-7.76,-0.19,-8.28,-1.27,-9.75,-5.14,-7.87,-4.07,-5.49,-1.19,-2.76,0.55,0.02,-0.41,2.43,-4.39,6.40,-9.07
2006-04-12 16:00,-12.05,-16.86,-11.47,-8.88,-8.52,-4.37,-6.72,-6.96,0.02,-3.64,-2.80,-6.45,-4.64,-9.07,-4.19,-7.06,-0.10,-5.34,2.28,-4.96,3.58,-6.56,6.44,-7.08
2006-04-12 17:00,-9.82,-9.54,-12.04,-6.23,-11.25,-0.37,-12.56,0.91,-3.22,-0.73,0.64,-3.25,-3.23,-3.55,-5.14,-3.80,-3.07,-3.40,1.82,-0.51,5.92,-1.71,6.64,-3.48
2006-04-12 18:00,-12.36,-16.53,-11.43,-8.66,-10.21,-3.20,-11.71,-4.15,-4.18,-6.01,1.29,-8.69,-0.17,-9.74,-1.80,-8.45,-1.81,-8.76,0.40,-7.07,2.82,-5.74,5.86,-5.79
2006-04-12 19:00,-7.60,-14.62,-7.39,-8.21,-8.54,-5.73,-12.57,-6.18,-9.82,-2.77,-3.36,-5.25,0.47,-9.45,-2.39,-9.66,-0.20,-9.64,3.09,-8.79,2.11,-8.65,1.76,-6.36
2006-04-12 20:00,1.36,-4.29,-5.65,-1.34,-7.94,-2.43,-5.92,-0.06,-4.57,3.87,2.81,1.45,5.89,-2.34,4.50,-3.27,5.06,-3.42,4.99,-2.08,4.98,1.14,2.72,6.01
2006-04-12 21:00,-0.03,-5.95,-2.42,-1.33,-6.02,1.36,-9.22,3.03,-5.03,2.59,2.90,-2.07,4.88,-5.66,3.42,-5.98,5.34,-4.38,4.93,-2.62,4.16,-1.39,4.19,-2.21
2006-04-12 22:00,-13.66,-8.16,-16.51,0.17,-16.09,3.00,-17.50,-0.74,-13.83,-1.86,-8.24,-8.87,-8.29,-12.63,-10.25,-10.92,-9.92,-8.84,-9.85,-8.71,-8.71,-7.97,-9.84,-5.17
2006-04-12 23:00,-7.23,-3.05,-12.45,2.30,-10.95,4.30,-4.47,2.44,-2.62,1.84,-1.83,-4.08,-2.29,-7.86,-1.61,-8.39,-0.70,-6.87,0.22,-6.08,0.59,-4.52,1.59,-3.29
2006-04-13 00:00,0.92,0.06,-8.60,1.97,-8.30,4.87,-2.46,0.95,-6.24,-1.82,-8.27,-3.77,-7.92,-6.07,-6.64,-5.07,-3.67,-2.43,-1.75,-2.91,-0.87,-2.02,-0.61,-1.84
2006-04-13 01:00,-6.71,5.85,-15.10,7.46,-16.94,9.84,-10.01,5.72,-9.46,0.99,-13.17,-2.71,-15.26,-1.96,-16.59,-1.00,-15.02,0.40,-14.12,-0.17,-13.23,-1.79,-10.51,-1.82
2006-04-13 02:00,-7.69,-6.83,-14.66,-5.43,-16.91,-0.26,-12.96,-4.83,-11.13,-10.03,-12.29,-13.91,-14.83,-12.36,-14.47,-9.65,-12.03,-7.68,-10.83,-7.86,-12.80,-10.72,-12.05,-12.59
2006-04-13 04:00,8.94,-4.57,-3.54,1.05,-5.49,5.58,-2.59,2.79,-2.11,-0.62,-4.55,-3.31,-4.15,-1.84,-2.58,0.29,-1.23,1.00,1.57,1.40,3.55,1.04,3.89,1.66
2006-04-13 05:00,5.63,-13.56,-7.07,-7.17,-5.70,-5.10,-1.97,-7.87,-2.20,-11.37,-4.23,-13.32,-8.22,-10.74,-6.63,-9.02,-4.40,-5.25,-2.31,-4.22,-0.14,-4.52,1.93,-3.39
2006-04-13 06:00,5.68,-11.57,-7.43,-4.88,-5.06,-3.36,-3.45,-4.24,-5.17,-8.70,-7.22,-7.74,-9.35,-3.67,-6.59,-0.26,-2.86,2.29,0.08,2.21,2.26,1.18,2.78,1.54
2006-04-13 07:00,6.23,-16.31,-1.17,-5.97,-1.02,-1.86,0.34,-5.42,-1.65,-6.84,-4.35,-4.71,-3.80,-0.90,-1.27,0.78,1.74,3.32,5.03,3.45,6.40,0.93,6.86,-1.02
2006-04-13 08:00,-0.63,-14.25,-9.27,-4.27,-8.58,0.83,-6.77,-1.77,-8.51,-4.05,-9.15,-0.07,-6.66,3.89,-3.84,5.65,1.09,6.26,4.20,4.87,6.13,3.25,5.79,1.59
2006-04-13 09:00,-3.79,-17.67,-9.38,-2.85,-7.71,1.08,-5.74,-5.32,-8.16,-5.93,-6.24,-1.10,-1.95,3.81,0.40,4.70,4.63,1.98,5.76,-0.82,9.01,-3.72,7.88,-4.15
2006-04-13 10:00,-5.88,-9.12,-5.78,6.23,-3.34,1.11,-7.66,-3.39,-9.47,1.40,-7.19,4.98,-3.47,6.17,0.22,6.00,2.65,4.84,3.61,1.89,4.55,-0.96,3.94,-1.35
2006-04-13 11:00,-9.12,-5.17,-9.13,5.56,-6.77,8.54,-7.36,1.29,-7.94,2.57,-5.33,7.19,-1.93,10.17,-0.58,10.88,3.73,8.28,4.35,5.44,3.15,3.84,1.66,2.15
2006-04-13 12:00,-12.60,3.19,-11.04,5.32,-9.28,7.50,-12.58,3.82,-11.78,5.00,-6.98,8.90,-4.72,10.81,-2.08,11.37,-0.64,8.25,0.48,4.41,-0.90,3.80,-1.75,3.13
2006-04-13 13:00,-15.40,-3.98,-11.04,4.27,-9.57,5.64,-11.28,1.18,-10.05,1.23,-9.56,1.69,-6.12,1.34,-4.07,2.15,-2.60,-0.03,-1.99,-3.19,-3.79,-4.86,-4.57,-3.63
2006-04-13 14:00,-11.74,8.44,-9.18,10.03,-4.62,9.38,-8.94,8.85,-7.64,7.25,-9.15,9.93,-9.99,9.58,-8.01,7.45,-6.19,7.26,-4.38,5.70,-4.51,3.68,-6.13,1.02
2006-04-13 15:00,-14.18,-1.75,-8.76,5.36,-4.83,5.46,-7.01,5.45,-8.04,5.77,-9.03,5.59,-8.64,4.25,-7.84,1.87,-4.40,-0.98,-1.29,-3.08,-3.22,-5.73,-6.03,-8.22
2006-04-13 16:00,-8.91,-3.02,-6.32,4.51,-2.58,4.56,-4.11,2.65,-3.63,2.07,-2.47,3.45,-1.56,0.69,0.16,-0.89,0.65,-2.21,0.44,-5.08,-2.05,-8.31,-4.94,-9.47
2006-04-13 17:00,-3.82,0.97,-2.16,-0.11,-0.71,1.36,-1.49,5.81,-0.95,5.04,1.78,4.59,2.33,3.81,3.28,1.27,2.41,-0.75,1.39,-2.62,-1.67,-5.70,-4.35,-7.21
2006-04-13 18:00,-5.56,-1.31,-2.86,-1.25,-1.65,1.71,-3.03,5.37,-0.72,7.08,-0.84,5.38,-0.39,3.84,0.25,2.36,0.27,1.22,-1.86,-0.75,-4.20,-3.10,-5.40,-1.48
2006-04-13 19:00,-0.14,-12.34,1.38,-4.70,1.60,-3.70,2.57,-4.87,3.77,-2.55,4.80,-3.60,3.60,-5.20,3.06,-6.19,0.35,-9.38,-1.96,-11.10,-2.93,-9.92,-1.35,-9.98
2006-04-13 20:00,3.77,-15.05,-0.90,-1.20,2.40,-1.80,5.05,-3.00,6.98,-2.13,6.88,-3.93,4.70,-5.40,2.56,-7.69,-0.07,-9.40,-1.77,-8.54,-1.74,-6.87,0.94,-6.08
2006-04-13 21:00,0.59,-6.29,-0.78,3.73,-0.57,4.10,3.05,3.81,4.07,3.17,2.72,2.46,0.63,1.75,-2.22,-0.96,-3.56,0.42,-1.74,4.18,-1.47,4.67,-1.08,1.56
2006-04-13 22:00,,,,,,,,,,,,,,,,,,,,,,,,
2006-04-13 23:00,-5.01,-1.05,-2.52,5.41,-5.94,5.35,-4.14,0.98,-3.38,0.89,-6.68,0.76,-9.87,1.70,-11.73,1.99,-10.15,6.20,-8.54,8.55,-4.33,7.69,-2.52,5.41
2006-04-14 00:00,-6.20,5.90,-6.47,10.72,-7.65,6.20,-5.82,1.74,-3.87,1.47,-5.07,1.64,-8.01,0.68,-6.54,2.05,-7.01,4.72,-5.51,7.45,-3.45,5.03,-4.20,5.44
2006-04-14 01:00,-9.28,3.23,-5.74,6.45,-9.89,7.11,-8.45,5.03,-5.23,-0.28,-6.09,-1.26,-7.77,-1.23,-7.79,-1.86,-6.22,1.31,-1.15,6.44,1.30,5.90,-2.57,4.87
2006-04-14 02:00,-3.29,5.91,-1.09,8.02,-5.68,4.80,-6.71,0.85,-3.45,0.03,-2.74,-3.82,-3.76,-3.18,-4.77,-1.50,-2.94,0.08,0.71,2.19,2.58,2.21,3.30,1.90
2006-04-14 03:00,-3.35,8.61,-1.54,8.82,-6.83,7.69,-9.79,8.18,-7.14,6.25,-8.61,3.42,-8.79,6.91,-5.59,8.78,-3.63,7.79,-3.31,8.10,-3.19,7.71,-2.13,6.57
2006-04-14 04:00,-10.13,-9.53,-8.80,-11.22,-13.75,-7.15,-15.50,-6.51,-13.41,-6.53,-14.30,-10.23,-14.32,-7.31,-11.71,-5.20,-6.94,-8.70,-4.53,-11.22,-4.28,-10.31,-3.93,-9.38
2006-04-14 05:00,-0.70,-11.87,-1.29,-13.40,-4.18,-11.01,-1.81,-11.26,0.54,-12.55,-1.36,-15.30,-2.50,-11.05,-1.01,-8.32,3.75,-11.41,6.97,-13.49,10.67,-14.38,11.34,-15.96
2006-04-14 06:00,0.94,-7.85,-0.62,-6.43,-1.44,-7.19,4.55,-7.73,3.45,-10.03,0.22,-10.36,1.11,-5.93,4.78,-4.96,7.49,-7.08,10.05,-10.50,13.36,-16.10,16.62,-19.42
2006-04-14 07:00,0.30,-7.10,1.80,-6.14,2.53,-2.59,5.07,-4.87,2.20,-5.40,1.52,-5.18,3.33,-2.47,9.79,-3.18,12.94,-6.84,10.55,-7.23,9.06,-8.19,7.51,-10.72
2006-04-14 08:00,-0.24,-10.59,3.81,-7.33,4.95,-3.03,5.84,-5.38,5.02,-6.14,2.03,-5.87,1.40,-4.80,5.06,-4.46,8.33,-11.73,8.31,-13.09,5.31,-12.82,2.12,-10.11
2006-04-14 09:00,-10.82,1.73,1.60,-6.20,9.15,-2.43,12.13,-4.79,14.57,-7.41,9.99,-2.08,4.80,0.68,8.39,0.16,13.75,-8.90,10.69,-8.75,7.02,-5.14,4.17,-2.85
2006-04-14 10:00,-13.15,3.65,1.49,-7.59,8.01,-3.18,8.89,-0.11,9.52,-2.63,5.95,-3.26,5.61,-3.15,8.06,-1.19,9.51,-3.68,8.18,-3.75,7.18,-5.30,1.70,-3.67
2006-04-14 11:00,-4.58,4.60,3.19,-1.99,2.95,0.97,4.49,0.69,2.39,0.39,1.40,1.97,2.65,2.34,5.06,1.58,5.04,0.22,1.92,-1.94,0.26,-1.59,-1.96,1.72
2006-04-14 12:00,-9.53,8.36,-1.62,2.34,2.24,2.32,1.34,2.89,-3.11,5.65,-3.94,8.12,-1.28,9.00,0.62,7.16,-0.59,3.79,-2.46,2.72,-4.19,3.99,-5.78,6.96
2006-04-14 13:00,-9.88,14.20,-8.09,13.78,-2.02,5.14,-1.61,2.65,-2.39,0.34,-3.06,1.92,-2.84,3.65,-1.25,2.86,-1.42,-1.56,-4.13,-4.75,-5.53,-3.91,-4.78,-0.77
2006-04-14 14:00,-4.59,6.78,0.11,2.12,-0.27,-3.72,-1.76,-4.68,-2.24,-2.32,-1.39,-2.38,-1.02,-1.13,-2.44,-2.69,-5.49,-3.69,-6.55,-1.81,-6.35,-1.44,-5.64,-2.80
2006-04-14 15:00,2.54,1.99,2.80,-0.33,3.05,-7.23,-0.77,-8.04,-1.80,-5.95,0.16,-4.12,-0.89,-2.66,-2.82,-5.31,-5.25,-5.91,-5.03,-2.41,-4.44,-1.20,-2.44,-3.42
2006-04-14 16:00,1.12,-4.88,-1.42,-10.83,-3.26,-12.00,-6.67,-16.02,-5.19,-10.06,-5.48,-6.92,-3.71,-8.69,-4.70,-11.38,-6.95,-11.51,-5.35,-8.44,-3.50,-6.55,-3.21,-7.92
2006-04-14 17:00,-0.61,-5.39,-2.08,-5.71,-2.95,-8.78,-5.51,-15.36,-3.12,-10.71,-2.37,-8.30,-3.55,-9.58,-5.45,-11.28,-5.01,-8.86,-3.54,-5.72,-3.03,-5.68,-1.76,-7.18
2006-04-14 18:00,3.03,-7.87,-1.82,-3.03,-2.58,-2.94,-4.24,-14.37,-2.89,-13.97,-0.95,-11.01,-1.89,-12.43,-3.69,-13.37,-3.95,-10.01,-1.85,-7.94,2.50,-6.77,2.60,-6.74
2006-04-14 19:00,-0.08,-18.26,-5.29,-10.40,-5.45,-8.78,-2.18,-16.06,-1.03,-18.22,0.01,-17.50,-0.78,-17.63,-2.47,-18.64,-1.88,-17.43,-0.89,-16.20,1.05,-15.01,2.30,-13.91
2006-04-14 20:00,4.39,-8.61,1.01,-3.46,0.04,-1.55,2.15,-5.93,4.05,-6.73,3.95,-7.81,1.51,-8.00,1.57,-7.15,3.38,-6.93,6.75,-5.63,5.60,-5.97,3.67,-6.85
2006-04-14 21:00,3.52,1.13,-0.73,1.77,1.96,7.55,4.25,1.87,4.38,2.12,4.21,0.92,2.30,1.40,0.20,1.10,1.29,0.58,3.63,1.48,3.62,0.43,2.16,1.15
2006-04-14 22:00,-0.02,3.64,-4.66,6.66,1.71,10.19,3.47,5.60,3.55,2.81,2.11,1.35,0.78,1.27,-0.64,3.25,-0.85,2.56,-0.11,2.16,0.44,0.65,0.95,-0.76
2006-04-14 23:00,-6.75,-6.14,-3.12,2.11,1.93,5.15,1.50,-2.27,-1.15,-4.61,-4.00,-7.00,-5.76,-5.96,-5.34,-3.12,-4.17,-3.20,-2.96,-3.78,-4.14,-5.07,-5.40,-4.70
2006-04-15 00:00,-5.11,-0.35,-3.99,2.59,3.43,3.61,3.65,-1.43,0.01,-3.96,-3.26,-4.18,-3.82,-2.26,-2.63,-0.98,-0.81,-2.22,-1.12,-2.93,-2.34,-1.62,-3.77,0.77
2006-04-15 01:00,-0.52,13.18,-0.22,13.58,4.42,9.11,7.44,3.43,5.42,0.34,2.53,-0.82,1.80,0.63,2.83,2.08,3.28,1.27,3.62,-0.61,3.50,-0.23,2.26,1.18
2006-04-15 02:00,-1.03,7.10,-1.46,5.72,3.10,0.80,1.77,-1.77,-2.50,-2.50,-2.84,0.11,0.04,1.99,0.74,2.09,1.66,-0.35,-1.26,-1.41,-2.50,-0.00,-1.15,3.21
2006-04-15 03:00,-7.78,0.95,-14.39,1.11,-4.37,-1.80,-3.59,-7.30,-6.76,-6.46,-6.65,-4.34,-3.95,-2.51,-2.17,-3.97,-3.61,-5.12,-5.49,-5.46,-5.02,-6.36,-2.98,-6.19
2006-04-15 04:00,-5.21,5.35,-13.55,7.50,-4.32,-0.54,-1.68,-3.51,-4.48,-2.14,-5.66,-0.61,-3.93,0.62,-3.17,-0.93,-5.30,-0.40,-7.60,0.69,-8.08,1.28,-7.68,2.03
2006-04-15 05:00,-12.52,4.68,-16.18,4.02,-11.75,5.63,-3.93,0.62,1.12,-6.34,1.57,-5.37,-0.31,-3.22,1.01,-0.96,1.09,-1.24,0.77,-0.50,0.80,0.13,-1.05,0.74
2006-04-15 06:00,-4.84,-8.40,-7.91,-7.52,-0.07,-11.17,2.95,-16.85,4.69,-14.98,4.82,-13.28,8.52,-13.45,5.85,-12.88,2.16,-11.66,2.89,-11.66,1.73,-13.04,3.07,-13.69
2006-04-15 07:00,0.08,-8.83,-3.50,-5.50,2.55,-9.78,5.70,-15.21,7.52,-13.95,8.80,-15.14,10.58,-16.60,9.82,-15.78,5.74,-11.45,3.63,-11.34,3.84,-12.42,4.75,-12.68
2006-04-15 08:00,1.30,-6.60,8.79,-3.68,12.65,-8.70,11.64,-14.52,15.50,-14.53,8.23,-14.26,8.21,-14.89,7.19,-13.53,7.53,-11.86,6.04,-10.32,3.99,-10.09,4.72,-10.81
2006-04-15 09:00,-0.02,-5.63,10.37,-2.70,6.91,-6.52,3.64,-12.79,6.93,-12.66,3.66,-10.39,1.82,-10.51,2.55,-8.73,2.98,-8.40,3.15,-7.93,3.37,-7.97,2.66,-7.66
2006-04-15 10:00,-3.20,0.63,2.82,1.76,1.61,-0.15,2.25,-4.13,6.41,-3.02,7.56,-0.19,1.82,-0.51,0.91,-0.98,2.72,-2.54,4.25,-1.36,3.03,1.41,2.78,3.31
2006-04-15 11:00,-5.20,-2.88,-0.22,1.81,0.36,0.21,1.55,-6.73,5.45,-6.53,8.67,-2.57,7.36,-2.01,4.33,-2.69,0.76,-5.09,2.54,-6.55,2.02,-4.41,1.24,-1.41
2006-04-15 12:00,-6.39,4.38,-1.56,5.69,2.29,2.13,3.05,-4.01,5.63,-4.29,9.19,-2.21,8.20,-0.62,4.08,-0.06,3.82,-0.97,5.96,-0.44,5.39,1.16,4.57,2.90
2006-04-15 13:00,-10.32,11.05,-2.11,6.15,-3.37,3.70,-4.02,1.64,-2.17,0.30,0.66,2.38,-0.10,3.20,-3.26,5.09,-4.20,4.40,-3.20,4.17,-3.61,5.93,-3.82,8.78
2006-04-15 14:00,-10.07,7.37,-7.17,7.07,-3.02,1.41,-4.10,-3.07,-3.22,-7.51,-1.88,-9.61,0.07,-8.42,-0.93,-7.88,-2.12,-5.93,-2.95,-7.01,-2.26,-7.23,-1.35,-5.71
2006-04-15 15:00,-8.07,5.14,-5.37,1.97,-3.35,-4.21,-5.66,-6.66,-6.70,-9.15,-5.83,-10.35,-5.67,-9.47,-4.73,-6.28,-6.36,-4.26,-6.90,-5.25,-6.04,-6.77,-6.24,-6.10
2006-04-15 16:00,-0.55,4.74,-1.89,2.89,0.51,-1.73,2.65,-6.93,1.24,-9.22,-0.34,-9.89,0.27,-8.05,2.06,-4.92,1.74,-4.18,1.27,-5.05,0.61,-5.66,1.53,-5.59
2006-04-15 17:00,-4.04,4.55,-4.66,-0.11,-6.52,-2.64,-7.74,-4.87,-5.60,-2.58,-5.90,-2.98,-7.62,-4.94,-6.63,-5.48,-5.23,-3.51,-4.13,-3.71,-4.24,-5.09,-3.17,-6.97
2006-04-15 18:00,0.30,2.90,-1.13,2.07,-3.62,1.34,-6.25,0.36,-7.55,-0.54,-5.11,-2.12,-2.84,-3.12,-2.65,-4.11,-1.10,-4.80,0.50,-2.77,2.04,-3.05,3.17,-3.35
2006-04-15 19:00,-0.09,-9.30,-1.68,-6.01,-2.71,-3.19,-4.31,-8.76,-4.24,-7.59,-2.59,-9.30,-3.29,-10.13,-1.51,-13.36,1.24,-13.50,2.04,-11.59,0.41,-11.03,2.77,-10.55
2006-04-15 20:00,5.89,-14.43,-1.17,-10.97,0.34,-6.88,2.20,-12.17,2.12,-13.65,1.27,-14.32,1.03,-15.64,2.12,-16.88,2.91,-17.80,6.36,-16.06,5.99,-15.86,5.67,-15.12
2006-04-15 21:00,-0.79,-4.08,-4.25,-2.91,-1.38,-0.61,-0.45,-0.24,-0.23,1.50,-1.53,1.32,-4.87,1.70,-5.02,-0.64,-3.48,-3.41,-3.63,-3.25,-2.28,-2.54,-1.12,-0.43
2006-04-15 22:00,3.51,-10.23,-1.83,-7.62,3.86,-4.29,7.10,-3.97,7.06,-4.19,6.80,-1.87,3.73,-2.77,1.39,-5.12,1.22,-4.54,1.71,-5.85,2.59,-5.29,4.79,-3.18
2006-04-15 23:00,6.20,-7.67,-1.61,-6.62,3.42,-4.21,11.34,-3.87,11.57,-4.64,13.58,-5.09,13.16,-2.61,9.80,-3.59,6.95,-2.76,7.83,-3.96,8.73,-2.76,8.32,0.04
2006-04-16 00:00,-9.48,-7.15,-10.75,-2.42,-0.49,-0.46,2.09,-3.24,4.10,-2.97,2.79,-0.64,-1.89,-1.39,-2.84,1.15,-2.12,0.84,-1.08,0.83,-0.96,2.22,-1.97,3.90
2006-04-16 01:00,-18.15,-1.35,-16.06,2.91,-4.99,1.04,1.78,-3.96,0.97,-6.18,1.99,-6.09,0.23,-5.77,-1.34,-4.66,-0.21,0.36,-0.37,-0.52,-0.42,1.44,-1.09,3.02
2006-04-16 02:00,-17.92,1.43,-19.87,5.96,-7.31,3.28,0.03,-2.60,-1.06,-3.85,-1.71,-5.19,-2.92,-5.33,-4.08,-4.94,-2.45,-3.01,-0.86,-0.98,-2.35,-2.67,-3.20,-2.60
2006-04-16 03:00,-9.49,6.08,-7.48,12.40,0.65,3.84,7.31,-3.28,6.48,-3.63,2.75,-5.13,3.26,-4.36,0.82,-3.51,3.49,-2.31,5.06,-0.92,4.17,-1.80,0.11,-2.88
2006-04-16 04:00,-9.12,-2.67,-2.71,-2.15,0.14,-13.30,6.85,-20.92,4.34,-18.42,1.56,-14.96,0.26,-12.64,1.74,-10.95,3.18,-10.53,3.48,-9.40,-0.67,-7.70,-2.48,-7.91
2006-04-16 05:00,-11.06,-8.86,-5.36,-3.76,-5.51,-10.36,-3.98,-20.23,1.42,-21.26,4.71,-24.67,4.74,-27.26,1.56,-23.51,0.32,-17.83,1.49,-16.13,2.37,-13.79,1.82,-12.28
2006-04-16 06:00,-1.26,-12.45,5.75,-9.68,1.18,-15.80,-0.59,-20.07,-0.46,-21.60,2.97,-24.76,7.00,-25.36,8.44,-23.89,7.07,-19.92,6.31,-16.60,6.23,-16.31,4.46,-15.26
2006-04-16 07:00,-3.30,-5.45,8.69,-8.71,4.40,-11.84,-3.49,-9.46,-5.73,-12.82,-4.91,-14.56,-4.35,-14.71,-0.64,-17.06,4.56,-19.50,9.39,-19.65,8.61,-18.74,7.99,-19.85
2006-04-16 08:00,7.16,-5.62,13.51,-7.72,4.28,-10.00,-2.18,-9.29,-1.30,-10.17,1.61,-11.20,1.16,-11.44,0.87,-12.25,2.22,-12.58,3.22,-11.35,3.58,-11.87,5.54,-12.55
2006-04-16 09:00,12.04,-10.54,15.05,-15.50,6.28,-18.27,0.25,-16.18,0.71,-15.63,-0.78,-12.31,-1.55,-11.08,-0.13,-12.02,-3.87,-13.84,-2.99,-15.77,-1.03,-15.72,0.64,-12.52
2006-04-16 10:00,3.31,-4.55,12.45,-7.30,5.72,-12.81,-3.80,-10.17,-3.97,-8.14,-2.52,-4.91,-5.59,-4.03,-5.59,-2.99,-7.48,-2.92,-6.80,-4.18,-5.07,-4.40,-4.51,-2.05
2006-04-16 11:00,15.74,-12.49,15.55,-17.54,9.82,-16.82,5.75,-12.18,7.54,-9.05,8.16,-6.89,6.77,-6.04,5.12,-5.38,3.16,-6.16,2.58,-5.60,3.44,-5.35,3.17,-3.35
2006-04-16 12:00,5.98,-12.63,8.22,-12.81,1.41,-10.53,-8.03,-9.23,-2.86,-8.75,-0.04,-6.99,-0.86,-5.25,-1.29,-4.13,-1.80,-1.67,-2.47,-0.10,-3.34,-0.35,-3.60,0.20
2006-04-16 13:00,6.62,-16.92,7.04,-15.86,4.17,-12.12,-1.15,-7.11,2.88,-8.43,5.77,-8.32,7.12,-5.84,6.74,-3.45,5.21,-2.12,4.48,-0.36,3.74,0.05,1.88,0.34
2006-04-16 14:00,-9.11,-7.67,-7.24,-6.60,-8.45,0.76,-12.39,8.88,-11.12,5.60,-9.03,3.09,-6.28,2.23,-5.64,3.98,-5.13,5.79,-6.78,7.50,-6.83,8.74,-6.84,9.15
2006-04-16 15:00,-10.19,-11.84,-3.15,-8.11,-6.97,-5.37,-13.80,-0.18,-10.95,-1.74,-7.76,-4.46,-6.59,-7.03,-6.79,-8.13,-6.59,-8.80,-4.86,-6.53,-4.34,-4.40,-5.31,-2.49
2006-04-16 16:00,,,,,,,,,,,,,,,,,,,,,,,,
2006-04-16 17:00,-11.75,-17.19,-8.50,-11.55,-7.00,-2.78,-10.56,-0.59,-11.01,-2.60,-12.01,-3.10,-10.86,-5.26,-10.81,-8.27,-10.55,-10.59,-9.11,-10.89,-8.80,-11.22,-8.62,-11.48
2006-04-16 18:00,-8.48,-26.23,-4.74,-16.91,-2.09,-7.80,-1.92,-7.33,-1.17,-9.20,-3.77,-12.77,-4.00,-12.32,-5.75,-14.18,-7.77,-15.82,-8.28,-18.36,-7.25,-19.73,-4.92,-19.15
2006-04-16 19:00,-8.76,-20.27,-3.85,-10.71,2.76,-6.59,0.32,-7.51,-1.60,-6.30,-2.88,-4.39,-4.84,-6.62,-6.89,-7.43,-7.55,-7.31,-8.28,-9.09,-7.51,-9.59,-5.65,-9.88